Regional Weather Roundup
Issued by NWS

Home | Current Version | Previous Version | Text Only | Print | Product List | Glossary Off
Versions: 1 2 3 4 5 6 7 8 9 10 11 12 13 14 15 16 17 18 19 20 21 22 23 24 25 26 27 28 29 30 31 32 33 34 35 36 37 38 39 40 41 42 43 44 45 46 47 48 49 50

000
ASUS43 KMKX 230800
RWRWI

WISCONSIN REGIONAL WEATHER ROUNDUP
NATIONAL WEATHER SERVICE MILWAUKEE/SULLIVAN WI
300 AM CDT THU OCT 23 2014

NOTE: "FAIR" INDICATES FEW OR NO CLOUDS BELOW 12,000 FEET WITH NO
SIGNIFICANT WEATHER AND/OR OBSTRUCTIONS TO VISIBILITY.

WIZ001-002-006>008-014>016-023>028-230900-
NORTHWEST WISCONSIN

CITY           SKY/WX    TMP DP  RH WIND       PRES   REMARKS
SUPERIOR ARPT  CLOUDY    53  40  62 SW9       29.99S
ASHLAND        CLOUDY    50  42  74 SW8       30.03F
HAYWARD        MOCLDY    48  41  76 S9        30.04F
SIREN          CLOUDY    53  39  58 S13       30.01S
CUMBERLAND     CLOUDY    46  39  76 SE8       30.04S
RICE LAKE      CLOUDY    48  41  76 SE9       30.06F
CHETEK         CLOUDY    47  43  84 E7        30.06F
LADYSMITH      DRIZZLE   46  43  88 SE8       30.10F
EAU CLAIRE     CLOUDY    49  42  77 SE7       30.07F
MENOMONIE      CLOUDY    48  42  80 E6        30.06F
NEW RICHMOND   CLOUDY    52  40  63 S10       30.03S
OSCEOLA        CLOUDY    52  42  68 SE5       30.04S
$$

WIZ003>005-009-010-017-018-230900-
NORTH CENTRAL WISCONSIN

CITY           SKY/WX    TMP DP  RH WIND       PRES   REMARKS
MANITOWISH WTR CLOUDY    45  37  73 S10       30.08F
ARBOR VITAE    MOCLDY    45  37  74 S10       30.10F
WOODRUFF       MOCLDY    45  37  74 S10       30.10F
RHINELANDER    MOCLDY    45  35  68 S10G16    30.13F
EAGLE RIVER    CLOUDY    41  35  79 CALM      30.12S
LAND O LAKES   CLOUDY    43  37  77 S7        30.12S
PHILLIPS       RAIN      46  40  80 S7        30.09S
TOMAHAWK       CLOUDY    42  37  80 CALM      30.14S
MEDFORD        MOCLDY    42  36  76 SE7       30.12F
MERRILL        CLOUDY    42  38  87 SE3       30.15S
$$

WIZ029-030-035-036-043>047-230900-
CENTRAL WISCONSIN

CITY           SKY/WX    TMP DP  RH WIND       PRES   REMARKS
WAUSAU         CLOUDY    41  37  86 SE6       30.14F
MOSINEE        CLOUDY    37  37 100 SE7       30.17R WCI  32
MARSHFIELD     CLOUDY    44  36  73 S8        30.13F
STEVENS POINT  PTCLDY    37  35  94 CALM      30.18R
WAUPACA        CLEAR     37  35  94 CALM      30.20S FOG
WAUTOMA        NOT AVBL
WISC RAPIDS    MOCLDY    41  37  86 SE6       30.17S
CAMP DOUGLAS   NOT AVBL
$$

WIZ011>013-019>022-031-037>040-048>050-230900-
NORTHEAST WISCONSIN

CITY           SKY/WX    TMP DP  RH WIND       PRES   REMARKS
ANTIGO         CLOUDY    36  36 100 S9        30.16S FOG     WCI  29
SHAWANO        CLEAR     36  34  94 CALM      30.20S FOG
OCONTO         FAIR      41  40  94 S3        30.20F
STURGEON BAY   CLEAR     39  36  87 S8        30.21F WCI  34
GREEN BAY      CLEAR     36  34  92 S3        30.21S
MANITOWOC      NOT AVBL
APPLETON       CLEAR     36  36 100 S6        30.20F WCI  31
CLINTONVILLE   FOG       32  32 100 CALM      30.20S VSB 1/4
OSHKOSH        CLEAR     36  35  96 SE7       30.19F WCI  30
$$

WIZ032>034-041-042-053>061-230900-
SOUTHWEST WISCONSIN

CITY           SKY/WX    TMP DP  RH WIND       PRES   REMARKS
LA CROSSE      CLOUDY    50  43  77 SE8       30.10F
SPARTA         CLOUDY    51  36  56 S6        30.14F
VIROQUA        CLOUDY    47  37  67 S8        30.13F
BOSCOBEL       CLOUDY    45  39  79 CALM      30.17R
PRAIRIE DU CHI CLOUDY    49  38  68 CALM      30.15R
PLATTEVILLE    PTCLDY    42  35  76 CALM      30.17S
$$

WIZ056-057-062-063-064-067-068-230900-
SOUTH CENTRAL WISCONSIN

CITY           SKY/WX    TMP DP  RH WIND       PRES   REMARKS
REEDSBURG      CLEAR     43  35  73 SE6       30.16S
BARABOO/DELLS  PTCLDY    41  35  79 S6        30.17S
LONE ROCK      NOT AVBL
MINERAL POINT  PTCLDY    41  36  81 SE8       30.16S
MADISON        FAIR      39  35  86 S8        30.19F WCI  33
MIDDLETON      FAIR      41  35  80 S5        30.19S
WATERTOWN      CLEAR     36  35  96 CALM      30.20F
MONROE         PTCLDY    39  34  81 S9        30.18F WCI  33
JANESVILLE     CLEAR     36  34  93 SE3       30.20F
$$

WIZ051-052-058>065-066-070>072-230900-
SOUTHEAST WISCONSIN

CITY           SKY/WX    TMP DP  RH WIND       PRES   REMARKS
MILWAUKEE      PTCLDY    36  33  89 CALM      30.23S
WAUKESHA       CLEAR     32  32 100 CALM      30.23S
MILWAUKEE/TIMM CLEAR     32  30  93 CALM      30.24S
RACINE         CLEAR     34  31  88 CALM      30.24F
BURLINGTON     FOG       26  26 100 CALM      30.23R VSB 1/4
KENOSHA        CLEAR     33  31  92 S3        30.23S
FOND DU LAC    CLEAR     35  32  88 S7        30.20F WCI  29
SHEBOYGAN      FOG       30  28  92 CALM      30.22F VSB 1/2
WEST BEND      FOG       32  32 100 CALM      30.22F VSB 1/2
JUNEAU         CLEAR     36  34  95 SE8       30.21F FOG     WCI  29
$$

LSZ147-162-230900-
LAKE SUPERIOR

STATION/POSITION TIME  TEMP    WIND        PRES    WAVE
                       AIR SEA DIR/SP/G            HT/PER
                 (UTC) (F)     (DEG/KT/KT) (MB)    (FT/S)
W MID LAKE BUOY  0650   48 46  150/ 12/ 14 1018.1F   2/ 3
DEVILS ISLAND    0700   52     170/  7/  8 1017.0F
PORT WING        0700   55     170/  9/ 12 1016.3F
SAXON HARBOR     0700   54     190/  5/ 10 1016.6F
$$

LMZ867-665-643>646-230900-
LAKE MICHIGAN

STATION/POSITION TIME  TEMP    WIND        PRES    WAVE
                       AIR SEA DIR/SP/G            HT/PER
                 (UTC) (F)     (DEG/KT/KT) (MB)    (FT/S)
CHAMBERS ISLAND  0700   45     150/  4/ 11 1023.0F
N MID LAKE BUOY  0650   47 51  190/ 12/ 14 1024.0F   1/ 3
NORTHPORT PIER   0700   43     170/  3/  8 1023.0F
SISTER BAY       0628          150/  8/ 10   N/A
ALGOMA LAKESHORE 0726          240/ 20/ 22   N/A
KEWAUNEE LAKESHO 0700   46     200/  9/ 11 1022.3F
SHEBOYGAN LAKESH 0700   48 51  180/ 14/ 15 1024.1F
PORT WASHINGTON  0700   41     270/  3/  4 1024.4
ATWATER BUOY     0700   47     170/  8/  8 1024.6F
MILWAUKEE LAKESH 0700   45     180/  5/  6   N/A
S MID LAKE BUOY  0650   50 54  170/ 12/ 14 1024.8F   1/ 3
KENOSHA   LAKESH 0700   44     180/  3/  4 1023.7F
$$

TC  - TEMPERATURE IN CELSIUS
VSB - VISIBILITY IN STATUTE MILES
WCI - WIND CHILL INDEX
HX  - HEAT INDEX




USA.gov is the U.S. government's official web portal to all federal, state and local government web resources and services.